Moffett Field, CA

7:46 AM PDT on September 30, 2016 (GMT -0700)
Moffett Federal Air Field

Weather History for KNUQ - May, 2013

Change the Weather History Date:

Wednesday, May 22, 2013

  Actual Average Record
Temperature  
Mean Temperature 58 °F 63 °F  
Max Temperature 67 °F 73 °F 87 °F (2000)
Min Temperature 49 °F 54 °F 44 °F (2002)
Degree Days  
Heating Degree Days 7    
Month to date heating degree days 39  
Since 1 July heating degree days 2062  
Cooling Degree Days 0    
Month to date cooling degree days 43  
Year to date cooling degree days 72  
Growing Degree Days 7 (Base 50)    
Moisture  
Dew Point 35 °F    
Average Humidity 43    
Maximum Humidity 63    
Minimum Humidity 22    
Precipitation  
Precipitation 0.00 in 0.01 in 0.47 in (1958)
Month to date precipitation T 0.39  
Year to date precipitation 1.78 9.45  
Since 1 July precipitation 9.55  
Sea Level Pressure  
Sea Level Pressure 30.01 in    
Wind  
Wind Speed 9 mph (WNW)    
Max Wind Speed 18 mph    
Max Gust Speed 24 mph    
Visibility 10 miles    
Events      
T = Trace of Precipitation, MM = Missing Value Source: NWS Daily Summary

Daily Weather History Graph

Daily Weather History Graph

Search for Another Location

Airport or City:

Trip Planner

Search our weather history database for the weather conditions in past years. The results will help you decide how hot, cold, wet, or windy it might be!

Date:

Astronomy

May. 22, 2013 Rise Set
Actual Time 5:53 AM PDT 8:16 PM PDT
Civil Twilight 5:24 AM PDT 8:46 PM PDT
Nautical Twilight 4:47 AM PDT 9:23 PM PDT
Astronomical Twilight 4:06 AM PDT 10:03 PM PDT
Moon 5:47 PM PDT (5/22) 3:57 AM PDT (5/22)
Length of Visible Light 15h 22m
Length of Day
14h 22m
Waxing Gibbous, 92% of the Moon is Illuminated
May 22
Waxing Gibbous
May 24
Full
May 31
Last Quarter
Jun 8
New
Jun 16
First Quarter

Hourly Weather History & Observations

Time (PDT) Temp. Dew Point Humidity Pressure Visibility Wind Dir Wind Speed Gust Speed Precip Events Conditions
12:56 AM 52.0 °F 39.0 °F 61% 30.03 in 10.0 mi WNW 8.1 mph 16.1 mph N/A   Clear
1:56 AM 51.1 °F 39.0 °F 63% 30.02 in 10.0 mi West 9.2 mph - N/A   Clear
2:56 AM 51.1 °F 37.9 °F 61% 30.02 in 10.0 mi West 5.8 mph - N/A   Clear
3:56 AM 50.0 °F 36.0 °F 59% 30.02 in 10.0 mi WNW 5.8 mph - N/A   Clear
4:56 AM 50.0 °F 35.1 °F 57% 30.02 in 10.0 mi WNW 5.8 mph - N/A   Clear
5:56 AM 48.9 °F 35.1 °F 59% 30.03 in 10.0 mi West 4.6 mph - N/A   Clear
6:56 AM 50.0 °F 35.1 °F 57% 30.04 in 10.0 mi WNW 5.8 mph - N/A   Clear
7:56 AM 53.1 °F 35.1 °F 50% 30.05 in 10.0 mi NNW 11.5 mph 16.1 mph N/A   Clear
8:56 AM 55.9 °F 34.0 °F 44% 30.05 in 10.0 mi NW 12.7 mph 21.9 mph N/A   Clear
9:56 AM 57.9 °F 33.1 °F 39% 30.05 in 10.0 mi NW 12.7 mph 18.4 mph N/A   Clear
10:56 AM 60.1 °F 30.0 °F 32% 30.04 in 10.0 mi NNW 8.1 mph 18.4 mph N/A   Clear
11:56 AM 62.1 °F 25.0 °F 24% 30.03 in 10.0 mi WNW 9.2 mph 18.4 mph N/A   Clear
12:56 PM 64.0 °F 28.0 °F 26% 30.01 in 10.0 mi NNW 10.4 mph 21.9 mph N/A   Clear
1:56 PM 66.9 °F 27.0 °F 22% 30.00 in 10.0 mi WNW 11.5 mph 17.3 mph N/A   Clear
2:56 PM 66.9 °F 28.0 °F 23% 29.99 in 10.0 mi NNW 16.1 mph 24.2 mph N/A   Clear
3:56 PM 66.0 °F 33.1 °F 29% 29.98 in 10.0 mi NW 15.0 mph 19.6 mph N/A   Clear
4:56 PM 64.0 °F 35.1 °F 34% 29.97 in 10.0 mi NNW 13.8 mph 19.6 mph N/A   Clear
5:56 PM 61.0 °F 36.0 °F 39% 29.97 in 10.0 mi NW 11.5 mph 19.6 mph N/A   Clear
6:56 PM 59.0 °F 36.0 °F 42% 29.96 in 10.0 mi West 10.4 mph - N/A   Clear
7:56 PM 55.9 °F 37.9 °F 51% 29.97 in 10.0 mi WSW 12.7 mph 18.4 mph N/A   Clear
8:56 PM 54.0 °F 39.0 °F 57% 29.98 in 10.0 mi WSW 5.8 mph - N/A   Clear
9:56 PM 53.1 °F 39.9 °F 61% 29.99 in 10.0 mi Variable 3.5 mph - N/A   Clear
10:56 PM 53.1 °F 39.9 °F 61% 29.99 in 10.0 mi WSW 3.5 mph - N/A   Clear
11:56 PM 51.1 °F 39.9 °F 66% 29.98 in 10.0 mi Calm Calm - N/A   Clear